{"data":{"norad_id":53911,"intl_designator":"2022-119AB","name":"STARLINK-5048","alt_names":[],"object_type":"PAYLOAD","status":"ACTIVE","operator":null,"country":"US","launch_date":"2022-09-24","launch_site_code":"AFETR","launch_vehicle":null,"mission":null,"orbit_class":"UNKNOWN","rcs_meters":null,"size_class":null,"mass_kg":null,"dimensions":null,"purposes":["comms"],"wikipedia_slug":null,"has_3d_model":false,"image_url":null,"decayed_at":null,"tle_current":{"epoch":"2026-05-24T22:34:56.434080Z","epoch_age_seconds":77238,"freshness":"FRESH","line1":"1 53911U 22119AB  26144.94093095  .00009313  00000+0  60311-3 0  9999","line2":"2 53911  53.2141 331.9948 0001506  86.1339 273.9826 15.08799980203330","mean_motion":15.0879998,"eccentricity":0.0001506,"inclination_deg":53.2141,"raan_deg":331.9948,"arg_perigee_deg":86.1339,"mean_anomaly_deg":273.9826,"bstar":0.00060311,"rev_number":20333,"period_min":95.440086100743,"perigee_km":538.82386558853,"apogee_km":540.90756800683,"semimajor_km":6918.0027167977,"source":"CELESTRAK","updated_at":"2026-05-25T13:38:17.610076Z"}}}